QPF
0.00 0.00 0.00 0.00 0.00 0.00 0.00 0.00 0.00 0.00 0.00 0.00 0.00 0.00 0.00 0.00 0.00 0.00 0.00 0.00 0.01 0.01 0.02 0.03 0.06 0.10 0.12 0.15 0.20 0.31 0.39 0.35 0.31 0.21 0.14 0.12 0.11 0.07 0.04 0.02 0.02 0.02 0.01 0.01
0.00 0.00 0.00 0.00 0.00 0.00 0.00 0.00 0.00 0.00 0.00 0.00 0.00 0.00 0.00 0.01 0.01 0.00 0.00 0.01 0.01 0.02 0.03 0.05 0.06 0.07 0.09 0.12 0.16 0.25 0.33 0.31 0.26 0.19 0.13 0.12 0.11 0.08 0.06 0.04 0.03 0.02 0.01 0.01
0.00 0.00 0.00 0.00 0.00 0.00 0.00 0.00 0.00 0.00 0.00 0.00 0.00 0.00 0.01 0.03 0.03 0.01 0.00 0.01 0.01 0.01 0.03 0.06 0.05 0.07 0.08 0.11 0.14 0.18 0.21 0.25 0.25 0.22 0.16 0.14 0.12 0.09 0.06 0.06 0.05 0.04 0.03 0.03
0.00 0.00 0.00 0.00 0.00 0.00 0.00 0.00 0.00 0.00 0.00 0.00 0.00 0.01 0.02 0.03 0.04 0.02 0.01 0.00 0.01 0.01 0.02 0.04 0.04 0.06 0.07 0.08 0.12 0.16 0.17 0.23 0.22 0.20 0.16 0.11 0.07 0.06 0.05 0.05 0.05 0.04 0.04 0.04
0.00 0.00 0.00 0.00 0.00 0.00 0.00 0.00 0.00 0.00 0.00 0.00 0.01 0.01 0.01 0.02 0.04 0.02 0.00 0.00 0.01 0.00 0.01 0.02 0.03 0.05 0.08 0.08 0.10 0.14 0.19 0.23 0.20 0.18 0.16 0.13 0.11 0.09 0.06 0.06 0.06 0.05 0.05 0.04
0.00 0.00 0.00 0.00 0.00 0.00 0.00 0.00 0.00 0.00 0.00 0.01 0.02 0.01 0.01 0.01 0.01 0.00 0.00 0.00 0.00 0.00 0.01 0.01 0.02 0.05 0.08 0.08 0.08 0.11 0.15 0.19 0.19 0.18 0.15 0.14 0.13 0.12 0.08 0.05 0.04 0.05 0.05 0.04
0.00 0.00 0.00 0.00 0.00 0.00 0.00 0.00 0.00 0.01 0.02 0.03 0.02 0.02 0.01 0.00 0.00 0.00 0.00 0.00 0.00 0.00 0.00 0.01 0.01 0.03 0.07 0.07 0.07 0.09 0.13 0.13 0.15 0.16 0.15 0.15 0.15 0.11 0.09 0.06 0.05 0.05 0.05 0.04
0.00 0.00 0.00 0.00 0.00 0.00 0.00 0.00 0.00 0.01 0.04 0.06 0.07 0.04 0.01 0.00 0.00 0.00 0.00 0.00 0.00 0.00 0.00 0.01 0.01 0.01 0.04 0.06 0.06 0.08 0.10 0.11 0.14 0.14 0.14 0.15 0.15 0.11 0.10 0.09 0.06 0.04 0.03 0.03
0.00 0.00 0.00 0.00 0.00 0.00 0.00 0.00 0.00 0.00 0.01 0.02 0.04 0.02 0.01 0.00 0.00 0.00 0.00 0.00 0.00 0.00 0.00 0.00 0.01 0.01 0.02 0.06 0.06 0.06 0.07 0.08 0.10 0.10 0.12 0.12 0.13 0.13 0.14 0.10 0.06 0.02 0.03 0.04
0.00 0.00 0.00 0.00 0.00 0.00 0.00 0.00 0.00 0.00 0.00 0.01 0.01 0.01 0.01 0.02 0.02 0.01 0.01 0.00 0.00 0.00 0.00 0.00 0.01 0.01 0.02 0.04 0.04 0.04 0.05 0.06 0.06 0.08 0.09 0.09 0.11 0.13 0.15 0.12 0.09 0.07 0.05 0.06
0.00 0.00 0.00 0.00 0.00 0.00 0.00 0.00 0.00 0.00 0.00 0.00 0.01 0.02 0.02 0.05 0.07 0.03 0.01 0.00 0.00 0.00 0.00 0.00 0.00 0.01 0.01 0.01 0.02 0.02 0.05 0.07 0.07 0.08 0.09 0.11 0.11 0.10 0.12 0.13 0.11 0.09 0.07 0.08
0.00 0.00 0.00 0.00 0.00 0.00 0.00 0.00 0.00 0.00 0.00 0.00 0.00 0.01 0.02 0.03 0.04 0.02 0.01 0.00 0.00 0.00 0.00 0.00 0.00 0.00 0.00 0.01 0.01 0.01 0.03 0.06 0.07 0.09 0.10 0.09 0.10 0.14 0.14 0.12 0.12 0.11 0.11 0.10
0.00 0.00 0.00 0.00 0.00 0.00 0.00 0.00 0.00 0.00 0.00 0.00 0.00 0.01 0.01 0.01 0.04 0.03 0.01 0.00 0.00 0.00 0.00 0.00 0.00 0.00 0.00 0.01 0.02 0.02 0.03 0.04 0.06 0.08 0.10 0.11 0.12 0.16 0.17 0.16 0.16 0.15 0.13 0.11
0.00 0.00 0.00 0.00 0.01 0.03 0.03 0.01 0.00 0.00 0.00 0.00 0.00 0.00 0.00 0.01 0.02 0.03 0.03 0.02 0.01 0.00 0.00 0.01 0.01 0.01 0.01 0.02 0.02 0.02 0.03 0.03 0.05 0.09 0.12 0.13 0.14 0.18 0.19 0.18 0.19 0.17 0.16 0.14
0.00 0.00 0.00 0.00 0.00 0.02 0.03 0.02 0.02 0.01 0.01 0.00 0.00 0.00 0.00 0.00 0.01 0.04 0.06 0.05 0.03 0.03 0.03 0.03 0.02 0.02 0.02 0.02 0.02 0.02 0.02 0.04 0.07 0.11 0.11 0.13 0.15 0.18 0.19 0.18 0.18 0.18 0.16 0.14
0.00 0.00 0.00 0.00 0.00 0.00 0.01 0.00 0.00 0.00 0.00 0.00 0.00 0.00 0.00 0.00 0.01 0.02 0.04 0.05 0.06 0.07 0.06 0.04 0.03 0.02 0.03 0.03 0.02 0.03 0.05 0.07 0.09 0.10 0.09 0.11 0.13 0.14 0.16 0.16 0.16 0.16 0.14 0.12
0.00 0.00 0.00 0.00 0.00 0.01 0.01 0.00 0.00 0.00 0.00 0.00 0.00 0.00 0.00 0.00 0.01 0.02 0.02 0.02 0.04 0.07 0.07 0.06 0.06 0.06 0.05 0.05 0.04 0.05 0.06 0.08 0.10 0.10 0.10 0.10 0.11 0.13 0.15 0.15 0.15 0.14 0.13 0.12
0.00 0.00 0.00 0.00 0.00 0.00 0.00 0.00 0.00 0.00 0.00 0.00 0.00 0.00 0.00 0.02 0.03 0.03 0.02 0.03 0.05 0.05 0.07 0.07 0.06 0.05 0.05 0.04 0.04 0.05 0.06 0.08 0.09 0.10 0.11 0.13 0.13 0.13 0.14 0.14 0.14 0.13 0.14 0.15
0.00 0.00 0.00 0.00 0.01 0.01 0.00 0.00 0.00 0.00 0.00 0.00 0.00 0.00 0.01 0.03 0.04 0.03 0.03 0.05 0.07 0.07 0.07 0.06 0.05 0.05 0.05 0.06 0.07 0.07 0.08 0.09 0.10 0.12 0.13 0.13 0.14 0.13 0.11 0.10 0.08 0.07 0.07 0.07
0.00 0.01 0.01 0.01 0.02 0.02 0.02 0.00 0.00 0.00 0.01 0.02 0.00 0.01 0.03 0.06 0.07 0.06 0.04 0.03 0.04 0.06 0.07 0.09 0.09 0.07 0.07 0.08 0.09 0.08 0.06 0.06 0.07 0.11 0.14 0.13 0.11 0.10 0.08 0.06 0.04 0.03 0.02 0.02
0.03 0.03 0.02 0.03 0.04 0.03 0.02 0.00 0.00 0.03 0.07 0.04 0.01 0.02 0.05 0.08 0.10 0.09 0.06 0.04 0.03 0.04 0.05 0.08 0.09 0.09 0.08 0.07 0.07 0.08 0.08 0.08 0.09 0.10 0.12 0.12 0.10 0.08 0.06 0.04 0.02 0.01 0.01 0.01
0.05 0.05 0.05 0.05 0.05 0.07 0.03 0.01 0.02 0.04 0.03 0.02 0.02 0.04 0.07 0.08 0.07 0.06 0.04 0.03 0.02 0.03 0.04 0.06 0.07 0.07 0.06 0.06 0.07 0.07 0.08 0.08 0.08 0.09 0.09 0.08 0.06 0.05 0.04 0.03 0.02 0.01 0.01 0.01
0.03 0.04 0.05 0.05 0.05 0.05 0.02 0.01 0.01 0.01 0.02 0.03 0.04 0.05 0.07 0.07 0.05 0.03 0.03 0.02 0.02 0.03 0.03 0.04 0.05 0.07 0.07 0.08 0.07 0.08 0.07 0.07 0.08 0.08 0.07 0.06 0.05 0.05 0.04 0.03 0.02 0.01 0.01 0.01
0.02 0.02 0.03 0.04 0.04 0.03 0.01 0.01 0.01 0.01 0.03 0.04 0.06 0.07 0.08 0.07 0.05 0.04 0.04 0.04 0.04 0.04 0.04 0.04 0.04 0.06 0.07 0.07 0.08 0.09 0.09 0.08 0.06 0.05 0.05 0.04 0.03 0.02 0.02 0.01 0.01 0.01 0.01 0.00
0.02 0.02 0.04 0.06 0.07 0.05 0.03 0.02 0.02 0.03 0.04 0.05 0.07 0.07 0.07 0.06 0.05 0.06 0.07 0.07 0.08 0.07 0.07 0.06 0.05 0.05 0.06 0.06 0.06 0.07 0.08 0.08 0.06 0.05 0.04 0.03 0.02 0.01 0.01 0.00 0.00 0.00 0.00 0.00
0.02 0.03 0.05 0.07 0.06 0.06 0.04 0.03 0.03 0.04 0.04 0.05 0.06 0.09 0.11 0.09 0.08 0.08 0.10 0.12 0.13 0.12 0.09 0.08 0.07 0.07 0.07 0.07 0.08 0.07 0.06 0.06 0.05 0.04 0.03 0.02 0.01 0.01 0.00 0.00 0.00 0.00 0.00 0.00
MSLP
1007.32 1007.73 1007.87 1007.78 1007.53 1007.20 1006.88 1006.63 1006.46 1006.36 1006.29 1006.20 1006.03 1005.76 1005.41 1004.99 1004.59 1004.26 1004.07 1004.06 1004.25 1004.62 1005.13 1005.73 1006.37 1006.99 1007.58 1008.13 1008.63 1009.11 1009.58 1010.07 1010.56 1011.05 1011.53 1011.98 1012.38 1012.73 1013.03 1013.29 1013.52 1013.75 1013.98 1014.23
1007.67 1007.92 1007.90 1007.67 1007.33 1006.98 1006.70 1006.54 1006.51 1006.56 1006.61 1006.61 1006.48 1006.21 1005.80 1005.30 1004.81 1004.40 1004.16 1004.13 1004.33 1004.73 1005.29 1005.93 1006.59 1007.21 1007.78 1008.28 1008.74 1009.19 1009.64 1010.12 1010.63 1011.16 1011.67 1012.15 1012.57 1012.92 1013.19 1013.42 1013.62 1013.81 1014.03 1014.27
1007.70 1007.78 1007.61 1007.27 1006.89 1006.57 1006.39 1006.38 1006.53 1006.76 1006.97 1007.07 1006.98 1006.68 1006.20 1005.60 1005.00 1004.49 1004.17 1004.10 1004.30 1004.72 1005.31 1005.99 1006.66 1007.29 1007.84 1008.31 1008.73 1009.13 1009.56 1010.04 1010.57 1011.14 1011.70 1012.22 1012.68 1013.05 1013.33 1013.55 1013.73 1013.91 1014.12 1014.36
1007.40 1007.33 1007.04 1006.65 1006.28 1006.05 1006.03 1006.23 1006.60 1007.03 1007.39 1007.59 1007.53 1007.20 1006.62 1005.90 1005.15 1004.51 1004.09 1003.96 1004.13 1004.56 1005.18 1005.88 1006.58 1007.22 1007.75 1008.19 1008.58 1008.94 1009.35 1009.82 1010.37 1010.97 1011.58 1012.16 1012.68 1013.09 1013.41 1013.64 1013.83 1014.01 1014.22 1014.47
1006.82 1006.62 1006.27 1005.88 1005.60 1005.52 1005.71 1006.14 1006.74 1007.37 1007.89 1008.17 1008.12 1007.73 1007.04 1006.16 1005.26 1004.47 1003.94 1003.73 1003.86 1004.29 1004.93 1005.66 1006.39 1007.04 1007.57 1007.98 1008.33 1008.66 1009.04 1009.50 1010.05 1010.68 1011.34 1011.99 1012.56 1013.04 1013.41 1013.68 1013.89 1014.09 1014.30 1014.55
1006.05 1005.78 1005.42 1005.09 1004.94 1005.05 1005.46 1006.14 1006.96 1007.78 1008.42 1008.75 1008.69 1008.22 1007.40 1006.37 1005.31 1004.39 1003.75 1003.46 1003.56 1003.98 1004.64 1005.41 1006.17 1006.83 1007.36 1007.76 1008.08 1008.37 1008.71 1009.15 1009.70 1010.34 1011.04 1011.74 1012.38 1012.92 1013.34 1013.66 1013.90 1014.12 1014.34 1014.59
1005.24 1004.93 1004.60 1004.38 1004.39 1004.70 1005.33 1006.21 1007.22 1008.17 1008.90 1009.25 1009.15 1008.59 1007.66 1006.50 1005.32 1004.28 1003.55 1003.21 1003.29 1003.72 1004.40 1005.20 1006.00 1006.69 1007.22 1007.62 1007.91 1008.17 1008.47 1008.88 1009.40 1010.05 1010.76 1011.49 1012.17 1012.76 1013.24 1013.60 1013.87 1014.10 1014.32 1014.57
1004.48 1004.18 1003.92 1003.82 1003.99 1004.47 1005.28 1006.32 1007.44 1008.47 1009.22 1009.56 1009.40 1008.77 1007.76 1006.51 1005.24 1004.14 1003.37 1003.02 1003.10 1003.55 1004.27 1005.11 1005.94 1006.66 1007.22 1007.62 1007.89 1008.13 1008.40 1008.77 1009.27 1009.89 1010.59 1011.33 1012.03 1012.65 1013.15 1013.54 1013.83 1014.06 1014.28 1014.51
1003.85 1003.60 1003.43 1003.45 1003.75 1004.36 1005.27 1006.38 1007.54 1008.57 1009.29 1009.58 1009.37 1008.69 1007.63 1006.35 1005.07 1003.98 1003.22 1002.90 1003.01 1003.50 1004.26 1005.15 1006.02 1006.78 1007.36 1007.78 1008.06 1008.29 1008.54 1008.88 1009.34 1009.93 1010.61 1011.32 1012.02 1012.63 1013.14 1013.53 1013.82 1014.04 1014.24 1014.45
1003.40 1003.22 1003.15 1003.27 1003.66 1004.33 1005.27 1006.36 1007.47 1008.42 1009.06 1009.28 1009.01 1008.31 1007.25 1006.02 1004.80 1003.77 1003.09 1002.83 1003.00 1003.54 1004.35 1005.27 1006.18 1006.98 1007.61 1008.06 1008.38 1008.62 1008.88 1009.21 1009.65 1010.20 1010.84 1011.51 1012.17 1012.76 1013.24 1013.61 1013.88 1014.08 1014.25 1014.43
1003.13 1003.04 1003.06 1003.26 1003.69 1004.36 1005.23 1006.22 1007.20 1008.01 1008.52 1008.64 1008.34 1007.64 1006.65 1005.52 1004.42 1003.52 1002.95 1002.79 1003.03 1003.62 1004.45 1005.41 1006.35 1007.18 1007.86 1008.37 1008.75 1009.05 1009.35 1009.69 1010.13 1010.66 1011.25 1011.88 1012.49 1013.03 1013.46 1013.80 1014.04 1014.22 1014.37 1014.52
1003.01 1003.02 1003.13 1003.38 1003.81 1004.42 1005.17 1005.99 1006.77 1007.40 1007.76 1007.78 1007.45 1006.79 1005.90 1004.90 1003.97 1003.23 1002.80 1002.73 1003.03 1003.65 1004.50 1005.45 1006.41 1007.28 1008.01 1008.60 1009.07 1009.46 1009.83 1010.23 1010.69 1011.21 1011.78 1012.36 1012.91 1013.39 1013.79 1014.08 1014.30 1014.46 1014.60 1014.74
1003.01 1003.14 1003.33 1003.62 1004.02 1004.52 1005.11 1005.73 1006.29 1006.70 1006.89 1006.82 1006.46 1005.86 1005.09 1004.26 1003.50 1002.93 1002.63 1002.65 1002.99 1003.60 1004.42 1005.35 1006.29 1007.18 1007.96 1008.63 1009.21 1009.72 1010.20 1010.69 1011.21 1011.76 1012.31 1012.86 1013.36 1013.79 1014.14 1014.41 1014.62 1014.78 1014.92 1015.07
1003.14 1003.38 1003.65 1003.96 1004.31 1004.71 1005.12 1005.51 1005.84 1006.04 1006.07 1005.90 1005.53 1005.00 1004.35 1003.69 1003.10 1002.67 1002.48 1002.55 1002.88 1003.45 1004.20 1005.06 1005.96 1006.84 1007.66 1008.42 1009.11 1009.76 1010.37 1010.98 1011.58 1012.17 1012.74 1013.27 1013.73 1014.13 1014.45 1014.70 1014.91 1015.10 1015.28 1015.46
1003.40 1003.75 1004.09 1004.41 1004.71 1004.99 1005.23 1005.42 1005.53 1005.54 1005.42 1005.17 1004.79 1004.31 1003.78 1003.26 1002.82 1002.51 1002.38 1002.46 1002.75 1003.24 1003.88 1004.63 1005.45 1006.29 1007.13 1007.96 1008.76 1009.54 1010.30 1011.03 1011.73 1012.39 1012.99 1013.51 1013.96 1014.33 1014.64 1014.90 1015.14 1015.37 1015.61 1015.86
1003.80 1004.23 1004.62 1004.95 1005.20 1005.38 1005.47 1005.48 1005.41 1005.25 1005.01 1004.69 1004.31 1003.89 1003.46 1003.05 1002.72 1002.49 1002.40 1002.45 1002.66 1003.03 1003.52 1004.14 1004.85 1005.63 1006.46 1007.33 1008.22 1009.12 1010.01 1010.86 1011.66 1012.38 1013.02 1013.56 1014.01 1014.38 1014.69 1014.97 1015.24 1015.54 1015.85 1016.19
1004.33 1004.81 1005.22 1005.54 1005.75 1005.84 1005.82 1005.69 1005.47 1005.19 1004.85 1004.49 1004.11 1003.74 1003.39 1003.08 1002.83 1002.65 1002.56 1002.57 1002.68 1002.91 1003.25 1003.72 1004.30 1004.99 1005.78 1006.66 1007.61 1008.59 1009.58 1010.53 1011.42 1012.21 1012.88 1013.45 1013.90 1014.28 1014.60 1014.91 1015.24 1015.60 1016.00 1016.43
1004.96 1005.43 1005.83 1006.13 1006.29 1006.32 1006.21 1005.98 1005.67 1005.31 1004.92 1004.53 1004.17 1003.84 1003.56 1003.32 1003.13 1002.99 1002.90 1002.85 1002.88 1002.98 1003.18 1003.50 1003.94 1004.53 1005.26 1006.12 1007.08 1008.10 1009.15 1010.17 1011.12 1011.96 1012.67 1013.26 1013.73 1014.12 1014.47 1014.81 1015.19 1015.62 1016.09 1016.61
1005.61 1006.02 1006.38 1006.63 1006.75 1006.72 1006.56 1006.29 1005.93 1005.53 1005.12 1004.73 1004.40 1004.12 1003.90 1003.73 1003.60 1003.49 1003.41 1003.34 1003.30 1003.31 1003.39 1003.59 1003.91 1004.40 1005.05 1005.85 1006.79 1007.82 1008.89 1009.94 1010.91 1011.79 1012.53 1013.13 1013.63 1014.04 1014.41 1014.78 1015.20 1015.67 1016.21 1016.79
1006.16 1006.49 1006.77 1006.96 1007.04 1006.99 1006.81 1006.52 1006.16 1005.76 1005.37 1005.01 1004.72 1004.50 1004.34 1004.24 1004.17 1004.12 1004.07 1004.01 1003.96 1003.92 1003.94 1004.05 1004.29 1004.68 1005.25 1005.99 1006.87 1007.86 1008.91 1009.95 1010.94 1011.82 1012.58 1013.20 1013.71 1014.14 1014.54 1014.94 1015.38 1015.88 1016.45 1017.06
1006.53 1006.74 1006.93 1007.07 1007.12 1007.07 1006.91 1006.66 1006.33 1005.98 1005.63 1005.33 1005.09 1004.93 1004.84 1004.82 1004.83 1004.85 1004.86 1004.86 1004.84 1004.81 1004.82 1004.90 1005.09 1005.42 1005.91 1006.57 1007.38 1008.31 1009.30 1010.31 1011.27 1012.15 1012.91 1013.55 1014.08 1014.54 1014.95 1015.37 1015.82 1016.33 1016.90 1017.51
1006.63 1006.74 1006.86 1006.97 1007.02 1007.00 1006.90 1006.71 1006.47 1006.19 1005.92 1005.69 1005.52 1005.42 1005.40 1005.45 1005.55 1005.66 1005.77 1005.85 1005.91 1005.96 1006.01 1006.10 1006.28 1006.58 1007.01 1007.59 1008.32 1009.17 1010.09 1011.03 1011.95 1012.80 1013.56 1014.21 1014.76 1015.24 1015.67 1016.09 1016.54 1017.04 1017.58 1018.17
1006.46 1006.50 1006.59 1006.69 1006.79 1006.85 1006.84 1006.77 1006.64 1006.48 1006.30 1006.14 1006.04 1006.01 1006.05 1006.17 1006.35 1006.56 1006.77 1006.97 1007.15 1007.30 1007.44 1007.59 1007.79 1008.08 1008.47 1008.99 1009.63 1010.37 1011.20 1012.07 1012.92 1013.74 1014.48 1015.13 1015.69 1016.18 1016.63 1017.06 1017.50 1017.97 1018.48 1019.01
1006.07 1006.09 1006.19 1006.36 1006.55 1006.73 1006.88 1006.95 1006.96 1006.92 1006.85 1006.77 1006.73 1006.75 1006.84 1007.02 1007.26 1007.56 1007.88 1008.20 1008.50 1008.78 1009.02 1009.26 1009.52 1009.81 1010.17 1010.63 1011.18 1011.82 1012.54 1013.31 1014.08 1014.84 1015.55 1016.19 1016.76 1017.26 1017.72 1018.15 1018.57 1019.01 1019.47 1019.94
1005.56 1005.62 1005.81 1006.09 1006.43 1006.79 1007.11 1007.36 1007.53 1007.62 1007.66 1007.66 1007.67 1007.72 1007.83 1008.03 1008.32 1008.68 1009.08 1009.51 1009.93 1010.33 1010.69 1011.02 1011.33 1011.64 1011.98 1012.37 1012.83 1013.36 1013.95 1014.61 1015.29 1015.97 1016.62 1017.24 1017.80 1018.31 1018.77 1019.19 1019.60 1020.00 1020.42 1020.83
1005.07 1005.24 1005.56 1006.01 1006.54 1007.10 1007.62 1008.06 1008.40 1008.63 1008.76 1008.83 1008.86 1008.92 1009.03 1009.23 1009.53 1009.91 1010.37 1010.87 1011.39 1011.88 1012.34 1012.74 1013.10 1013.43 1013.74 1014.06 1014.42 1014.82 1015.29 1015.81 1016.38 1016.96 1017.55 1018.12 1018.66 1019.16 1019.61 1020.03 1020.43 1020.81 1021.18 1021.54
Thickness
5816 5803 5798 5809 5821 5823 5824 5821 5819 5828 5849 5841 5833 5831 5836 5838 5830 5820 5812 5804 5796 5790 5788 5783 5777 5771 5763 5759 5755 5750 5746 5745 5745 5745 5745 5746 5747 5750 5752 5752 5751 5750 5750 5750
5801 5798 5814 5825 5828 5826 5823 5814 5817 5830 5845 5838 5829 5828 5836 5831 5821 5820 5813 5804 5797 5790 5784 5779 5774 5769 5763 5758 5754 5750 5745 5743 5743 5744 5746 5746 5747 5748 5749 5749 5748 5748 5748 5748
5794 5811 5830 5823 5817 5813 5815 5811 5814 5818 5830 5835 5826 5814 5816 5821 5823 5818 5817 5810 5802 5793 5783 5777 5772 5768 5764 5758 5754 5752 5746 5744 5744 5744 5744 5744 5743 5744 5744 5743 5744 5746 5746 5746
5806 5822 5823 5819 5814 5814 5804 5823 5823 5820 5812 5808 5813 5786 5800 5809 5806 5805 5810 5809 5803 5797 5788 5779 5773 5767 5763 5759 5756 5752 5747 5744 5744 5743 5742 5740 5738 5738 5741 5742 5742 5743 5744 5744
5806 5819 5816 5810 5816 5819 5814 5829 5824 5819 5809 5800 5803 5787 5793 5807 5798 5803 5810 5810 5806 5799 5791 5782 5775 5769 5764 5760 5756 5751 5747 5744 5743 5742 5741 5740 5740 5740 5741 5741 5739 5739 5741 5742
5815 5831 5830 5823 5829 5829 5825 5819 5815 5812 5802 5776 5786 5779 5784 5806 5809 5813 5815 5813 5807 5801 5793 5784 5778 5771 5765 5761 5757 5752 5747 5744 5742 5741 5740 5739 5739 5739 5738 5737 5735 5736 5738 5739
5797 5814 5829 5833 5816 5821 5818 5794 5775 5771 5769 5765 5778 5770 5786 5821 5831 5827 5820 5814 5809 5803 5794 5784 5776 5770 5764 5760 5757 5753 5748 5743 5741 5740 5738 5738 5738 5738 5737 5736 5735 5736 5736 5736
5785 5790 5818 5826 5815 5805 5809 5800 5771 5756 5759 5758 5764 5759 5790 5826 5834 5833 5827 5818 5810 5803 5796 5787 5779 5772 5766 5762 5758 5753 5748 5743 5741 5739 5737 5737 5737 5737 5737 5737 5737 5736 5737 5738
5795 5799 5831 5835 5832 5818 5800 5801 5811 5791 5781 5767 5767 5782 5804 5822 5822 5823 5820 5814 5808 5803 5796 5788 5781 5774 5768 5762 5758 5754 5748 5744 5741 5739 5737 5736 5735 5736 5736 5735 5736 5737 5737 5737
5804 5792 5819 5833 5829 5825 5818 5811 5801 5787 5764 5757 5773 5779 5779 5790 5797 5806 5809 5808 5807 5804 5797 5790 5783 5777 5771 5765 5759 5754 5750 5746 5743 5740 5738 5736 5734 5734 5733 5733 5733 5735 5735 5735
5809 5789 5800 5815 5806 5802 5807 5801 5797 5793 5790 5768 5760 5772 5799 5791 5790 5796 5806 5810 5807 5802 5799 5792 5785 5780 5774 5767 5761 5755 5751 5746 5743 5741 5738 5736 5734 5733 5731 5730 5730 5731 5732 5731
5809 5795 5784 5799 5821 5826 5814 5805 5798 5776 5774 5781 5771 5775 5810 5806 5800 5802 5809 5813 5810 5806 5802 5795 5788 5781 5774 5768 5762 5757 5753 5748 5744 5741 5738 5736 5734 5732 5730 5728 5728 5728 5727 5727
5799 5784 5765 5771 5791 5806 5801 5802 5799 5793 5784 5775 5768 5775 5813 5811 5806 5803 5803 5807 5806 5803 5800 5795 5787 5780 5774 5769 5764 5759 5755 5750 5745 5742 5738 5734 5732 5730 5728 5727 5725 5724 5722 5721
5790 5774 5766 5760 5772 5780 5777 5783 5787 5780 5771 5771 5778 5781 5796 5797 5794 5794 5796 5794 5797 5797 5794 5789 5784 5778 5774 5769 5764 5759 5755 5752 5747 5742 5737 5732 5730 5728 5726 5724 5722 5719 5718 5716
5780 5763 5768 5776 5785 5783 5774 5771 5773 5771 5773 5771 5779 5783 5791 5793 5793 5789 5788 5787 5790 5790 5785 5783 5780 5776 5772 5768 5764 5761 5756 5753 5749 5742 5736 5732 5729 5727 5724 5721 5718 5715 5713 5711
5768 5755 5758 5759 5773 5776 5769 5770 5772 5772 5776 5778 5781 5784 5802 5799 5794 5788 5787 5785 5784 5784 5781 5779 5778 5774 5769 5766 5762 5759 5755 5752 5747 5741 5736 5732 5728 5724 5721 5717 5713 5710 5707 5703
5755 5744 5737 5739 5759 5760 5751 5768 5770 5771 5778 5778 5770 5778 5789 5784 5781 5779 5779 5780 5780 5780 5778 5775 5773 5769 5765 5763 5760 5755 5752 5749 5743 5737 5733 5729 5724 5719 5716 5712 5707 5703 5699 5695
5738 5734 5732 5732 5734 5716 5752 5781 5778 5770 5772 5776 5774 5775 5776 5773 5772 5774 5776 5774 5772 5773 5771 5769 5767 5764 5762 5760 5756 5752 5747 5742 5736 5731 5727 5723 5718 5713 5708 5703 5699 5695 5691 5686
5742 5728 5722 5721 5717 5727 5751 5763 5764 5756 5754 5764 5760 5760 5763 5766 5763 5759 5762 5765 5762 5761 5761 5761 5761 5759 5756 5753 5749 5743 5738 5733 5728 5723 5719 5715 5710 5704 5698 5693 5689 5685 5681 5676
5733 5726 5714 5712 5705 5705 5729 5750 5759 5749 5732 5742 5745 5743 5745 5746 5735 5734 5743 5747 5748 5747 5748 5748 5749 5747 5744 5742 5739 5732 5726 5722 5717 5712 5709 5704 5699 5694 5688 5683 5679 5674 5671 5666
5704 5704 5703 5702 5700 5712 5728 5741 5744 5715 5709 5728 5732 5730 5730 5725 5723 5725 5729 5728 5730 5731 5733 5734 5734 5731 5729 5729 5727 5720 5714 5708 5705 5701 5696 5691 5686 5682 5677 5673 5668 5664 5660 5655
5688 5689 5693 5696 5690 5694 5720 5723 5710 5705 5717 5720 5720 5720 5717 5715 5714 5713 5712 5711 5712 5714 5716 5717 5717 5715 5714 5715 5712 5705 5699 5696 5694 5689 5683 5678 5673 5670 5665 5661 5656 5652 5648 5644
5691 5695 5697 5697 5695 5705 5711 5708 5710 5712 5708 5708 5709 5709 5707 5703 5699 5697 5696 5696 5697 5697 5699 5700 5700 5697 5696 5696 5695 5689 5685 5682 5678 5673 5668 5663 5659 5655 5651 5648 5644 5641 5637 5635
5693 5703 5698 5694 5700 5702 5702 5702 5701 5700 5697 5699 5699 5698 5695 5690 5686 5683 5682 5681 5681 5681 5681 5682 5682 5679 5676 5676 5676 5674 5671 5669 5665 5659 5654 5650 5646 5641 5637 5634 5630 5625 5623 5621
5685 5690 5688 5685 5689 5690 5690 5687 5686 5685 5686 5686 5687 5686 5682 5679 5674 5671 5668 5666 5666 5666 5665 5665 5664 5662 5660 5661 5660 5659 5658 5655 5651 5647 5642 5637 5632 5626 5620 5614 5608 5605 5600 5601
5685 5681 5677 5672 5676 5673 5671 5674 5674 5672 5671 5671 5670 5668 5667 5664 5661 5658 5654 5652 5651 5650 5649 5648 5648 5647 5645 5645 5644 5643 5643 5641 5638 5634 5630 5627 5621 5615 5610 5602 5592 5585 5584 5582